WB6TTB Weather Reports


Display with metric or nautical units.
time (UTC)temp
F
wind
direction
speed
MPH
gust
MPH
rain 1hr
in
rain 24hr
in
rain mn
in
humidity
%
barometer
mb
20260510014803 67 0 0.0 0.0 0.00 0.00 0.00 77 1012.3
20260510014203 67 0 0.0 0.0 0.00 0.00 0.00 76 1012.4
20260510013603 68 0 0.0 0.0 0.00 0.00 0.00 75 1012.4
20260510013003 69 0 0.0 0.0 0.00 0.00 0.00 74 1012.3
20260510012403 69 0 0.0 0.0 0.00 0.00 0.00 73 1012.4
20260510011804 69 0 0.0 0.0 0.00 0.00 0.00 73 1012.4
20260510011204 70 0 0.0 0.0 0.00 0.00 0.00 73 1012.4
20260510010604 70 0 0.0 0.0 0.00 0.00 0.00 72 1012.3
20260510005404 71 0 0.0 0.0 0.00 0.00 0.00 71 1012.4
20260510004203 72 0 0.0 0.0 0.00 0.00 0.00 70 1012.4
20260510003604 73 0 0.0 0.0 0.00 0.00 0.00 69 1012.4
20260510003004 73 0 0.0 0.0 0.00 0.00 0.00 69 1012.4
20260510002404 74 0 0.0 0.0 0.00 0.00 0.00 66 1012.5
20260510001803 75 0 0.0 0.0 0.00 0.00 0.00 66 1012.4
20260510001203 75 0 0.0 0.0 0.00 0.00 0.00 67 1012.5
20260510000603 75 0 0.0 0.0 0.00 0.00 0.00 67 1012.5
20260510000003 74 0 0.0 0.0 0.00 0.00 0.00 69 1012.5
20260509235403 74 0 0.0 0.0 0.00 0.00 0.00 70 1012.5
20260509234803 75 0 0.0 0.0 0.00 0.00 0.00 66 1012.6
20260509234203 75 0 0.0 0.0 0.00 0.00 0.00 68 1012.6
20260509233603 74 0 0.0 0.0 0.00 0.00 0.00 70 1012.6
20260509231803 72 0 0.0 0.0 0.00 0.00 0.00 71 1012.6
20260509231203 72 0 0.0 0.0 0.00 0.00 0.00 70 1012.7
20260509230603 72 0 0.0 0.0 0.00 0.00 0.00 71 1012.8
20260509225404 72 0 0.0 0.0 0.00 0.00 0.00 70 1012.8
20260509224804 72 0 0.0 0.0 0.00 0.00 0.00 70 1012.8
20260509224204 72 0 0.0 0.0 0.00 0.00 0.00 69 1012.8
20260509223603 71 0 0.0 0.0 0.00 0.00 0.00 70 1013.0
20260509223003 71 0 0.0 0.0 0.00 0.00 0.00 71 1013.1
20260509222404 71 0 0.0 0.0 0.00 0.00 0.00 72 1013.1
20260509221803 70 0 0.0 0.0 0.00 0.00 0.00 73 1013.2
20260509220603 70 0 0.0 0.0 0.00 0.00 0.00 73 1013.3
20260509220004 71 0 0.0 0.0 0.00 0.00 0.00 70 1013.4
20260509214803 71 0 0.0 0.0 0.00 0.00 0.00 69 1013.5
20260509213603 71 0 0.0 0.0 0.00 0.00 0.00 68 1013.6
20260509213003 71 0 0.0 0.0 0.00 0.00 0.00 68 1013.7
20260509211803 70 0 0.0 0.0 0.00 0.00 0.00 69 1013.8
20260509211203 70 0 0.0 0.0 0.00 0.00 0.00 70 1013.8
20260509210003 68 0 0.0 0.0 0.00 0.00 0.00 71 1013.9
20260509205403 68 0 0.0 0.0 0.00 0.00 0.00 73 1013.9
20260509204204 68 0 0.0 0.0 0.00 0.00 0.00 73 1014.0
20260509203604 68 0 0.0 0.0 0.00 0.00 0.00 74 1014.0
20260509203004 66 0 0.0 0.0 0.00 0.00 0.00 75 1014.0
20260509202404 66 0 0.0 0.0 0.00 0.00 0.00 75 1014.1
20260509201204 65 0 0.0 0.0 0.00 0.00 0.00 77 1014.2
20260509195404 65 0 0.0 0.0 0.00 0.00 0.00 78 1014.3
20260509194203 64 0 0.0 0.0 0.00 0.00 0.00 78 1014.4
20260509193003 64 0 0.0 0.0 0.00 0.00 0.00 80 1014.5
20260509192403 63 0 0.0 0.0 0.00 0.00 0.00 81 1014.6
20260509191803 63 0 0.0 0.0 0.00 0.00 0.00 80 1014.6
20260509191203 62 0 0.0 0.0 0.00 0.00 0.00 82 1014.7
20260509185403 60 0 0.0 0.0 0.00 0.00 0.00 85 1014.7
20260509184803 60 0 0.0 0.0 0.00 0.00 0.00 85 1014.8
20260509184203 60 0 0.0 0.0 0.00 0.00 0.00 86 1014.8
20260509183603 59 0 0.0 0.0 0.00 0.00 0.00 87 1014.8
20260509183004 58 0 0.0 0.0 0.00 0.00 0.00 87 1014.9
20260509181804 58 0 0.0 0.0 0.00 0.00 0.00 86 1014.8
20260509180604 58 0 0.0 0.0 0.00 0.00 0.00 86 1014.8
20260509175403 58 0 0.0 0.0 0.00 0.00 0.00 84 1014.9
20260509173003 58 0 0.0 0.0 0.00 0.00 0.00 87 1015.0
20260509171203 57 0 0.0 0.0 0.00 0.00 0.00 89 1015.0
20260509170603 56 0 0.0 0.0 0.00 0.00 0.00 89 1015.1
20260509165403 56 0 0.0 0.0 0.00 0.00 0.00 90 1015.1
20260509163603 55 0 0.0 0.0 0.00 0.00 0.00 94 1015.1
20260509163003 54 0 0.0 0.0 0.00 0.00 0.00 94 1015.0
20260509162403 54 0 0.0 0.0 0.00 0.00 0.00 95 1015.0
20260509161803 54 0 0.0 0.0 0.00 0.00 0.00 95 1015.1
20260509161204 54 0 0.0 0.0 0.00 0.00 0.00 95 1015.0
20260509154204 52 0 0.0 0.0 0.00 0.00 0.00 98 1015.0
20260509153004 52 0 0.0 0.0 0.00 0.00 0.00 98 1014.9
20260509152403 52 0 0.0 0.0 0.00 0.00 0.00 98 1014.8
20260509151803 52 0 0.0 0.0 0.00 0.00 0.00 98 1014.8
20260509151204 51 0 0.0 0.0 0.00 0.00 0.00 98 1014.8
20260509150603 51 0 0.0 0.0 0.00 0.00 0.00 98 1014.8
20260509145403 51 0 0.0 0.0 0.00 0.00 0.00 98 1014.8
20260509143603 50 0 0.0 0.0 0.00 0.00 0.00 98 1014.7
20260509143003 50 0 0.0 0.0 0.00 0.00 0.00 98 1014.7
20260509142403 50 0 0.0 0.0 0.00 0.00 0.00 98 1014.6
20260509141803 50 0 0.0 0.0 0.00 0.00 0.00 98 1014.6
20260509141203 50 0 0.0 0.0 0.00 0.00 0.00 98 1014.6
20260509140603 50 0 0.0 0.0 0.00 0.00 0.00 98 1014.4
20260509140006 50 0 0.0 0.0 0.00 0.00 0.00 98 1014.4
20260509135404 50 0 0.0 0.0 0.00 0.00 0.00 98 1014.3
20260509134804 50 0 0.0 0.0 0.00 0.00 0.00 98 1014.4
20260509134204 50 0 0.0 0.0 0.00 0.00 0.00 98 1014.4
20260509133604 50 0 0.0 0.0 0.00 0.00 0.00 98 1014.3
20260509133004 50 0 0.0 0.0 0.00 0.00 0.00 98 1014.3
20260509132403 50 0 0.0 0.0 0.00 0.00 0.00 98 1014.2
20260509131203 50 0 0.0 0.0 0.00 0.00 0.00 97 1014.3
20260509130604 50 0 0.0 0.0 0.00 0.00 0.00 97 1014.2
20260509130004 50 0 0.0 0.0 0.00 0.00 0.00 97 1014.2
20260509124803 50 0 0.0 0.0 0.00 0.00 0.00 97 1014.1
20260509124203 50 0 0.0 0.0 0.00 0.00 0.00 97 1014.1
20260509123603 50 0 0.0 0.0 0.00 0.00 0.00 97 1014.1
20260509123003 50 0 0.0 0.0 0.00 0.00 0.00 97 1014.0
20260509122403 50 0 0.0 0.0 0.00 0.00 0.00 97 1014.1
20260509121803 50 0 0.0 0.0 0.00 0.00 0.00 97 1014.0
20260509120603 50 0 0.0 0.0 0.00 0.00 0.00 97 1014.0
20260509120003 50 0 0.0 0.0 0.00 0.00 0.00 97 1014.1
20260509115403 50 0 0.0 0.0 0.00 0.00 0.00 97 1014.1
20260509114803 50 0 0.0 0.0 0.00 0.00 0.00 97 1014.1
20260509114204 50 0 0.0 0.0 0.00 0.00 0.00 97 1014.2
20260509113604 50 0 0.0 0.0 0.00 0.00 0.00 97 1014.2
20260509113004 50 0 0.0 0.0 0.00 0.00 0.00 97 1014.2
20260509111204 50 0 0.0 0.0 0.00 0.00 0.00 97 1014.2
20260509110603 50 0 0.0 0.0 0.00 0.00 0.00 97 1014.2
20260509110004 50 0 0.0 0.0 0.00 0.00 0.00 97 1014.3
20260509105404 50 0 0.0 0.0 0.00 0.00 0.00 97 1014.2
20260509104803 50 0 0.0 0.0 0.00 0.00 0.00 96 1014.3
20260509104203 51 0 0.0 0.0 0.00 0.00 0.00 96 1014.2
20260509103603 51 0 0.0 0.0 0.00 0.00 0.00 96 1014.3
20260509102403 51 0 0.0 0.0 0.00 0.00 0.00 96 1014.3
20260509101203 51 0 0.0 0.0 0.00 0.00 0.00 96 1014.4
20260509100004 50 0 0.0 0.0 0.00 0.00 0.00 96 1014.2
20260509095403 50 0 0.0 0.0 0.00 0.00 0.00 96 1014.3
20260509094803 50 0 0.0 0.0 0.00 0.00 0.00 96 1014.3
20260509094203 50 0 0.0 0.0 0.00 0.00 0.00 96 1014.3
20260509093603 50 0 0.0 0.0 0.00 0.00 0.00 96 1014.4
20260509093003 51 0 0.0 0.0 0.00 0.00 0.00 95 1014.5
20260509092404 51 0 0.0 0.0 0.00 0.00 0.00 95 1014.5
20260509091204 51 0 0.0 0.0 0.00 0.00 0.00 95 1014.6
20260509090604 51 0 0.0 0.0 0.00 0.00 0.00 95 1014.5
20260509090004 51 0 0.0 0.0 0.00 0.00 0.00 95 1014.5
20260509084203 51 0 0.0 0.0 0.00 0.00 0.00 95 1014.5
20260509083604 51 0 0.0 0.0 0.00 0.00 0.00 95 1014.7
20260509082403 51 0 0.0 0.0 0.00 0.00 0.00 95 1014.8
20260509081803 51 0 0.0 0.0 0.00 0.00 0.00 95 1014.8
20260509081203 51 0 0.0 0.0 0.00 0.00 0.00 94 1014.8
20260509080003 51 0 0.0 0.0 0.00 0.00 0.00 94 1014.9
20260509075403 51 0 0.0 0.0 0.00 0.00 0.00 94 1014.9
20260509074803 52 0 0.0 0.0 0.00 0.00 0.00 94 1014.9
20260509074203 52 0 0.0 0.0 0.00 0.00 0.00 94 1015.0
20260509073603 52 0 0.0 0.0 0.00 0.00 0.00 94 1015.0
20260509073003 52 0 0.0 0.0 0.00 0.00 0.00 94 1015.0
20260509072403 52 0 0.0 0.0 0.00 0.00 0.00 94 1015.0
20260509071803 52 0 0.0 0.0 0.00 0.00 0.00 93 1014.9
20260509071203 52 0 0.0 0.0 0.00 0.00 0.00 93 1015.0
20260509070604 52 0 0.0 0.0 0.00 0.00 0.00 93 1015.1
20260509065404 52 0 0.0 0.0 0.00 0.00 0.00 92 1015.0
20260509064204 52 0 0.0 0.0 0.00 0.00 0.00 92 1015.1
20260509062403 53 0 0.0 0.0 0.00 0.00 0.00 93 1015.1
20260509061804 53 0 0.0 0.0 0.00 0.00 0.00 93 1015.1
20260509061203 53 0 0.0 0.0 0.00 0.00 0.00 93 1015.1
20260509055403 53 0 0.0 0.0 0.00 0.00 0.00 92 1015.3
20260509054803 53 0 0.0 0.0 0.00 0.00 0.00 92 1015.3
20260509054203 54 0 0.0 0.0 0.00 0.00 0.00 92 1015.5
20260509053603 54 0 0.0 0.0 0.00 0.00 0.00 92 1015.4
20260509053003 54 0 0.0 0.0 0.00 0.00 0.00 91 1015.4
20260509052403 54 0 0.0 0.0 0.00 0.00 0.00 91 1015.2
20260509051203 54 0 0.0 0.0 0.00 0.00 0.00 92 1015.3
20260509050603 54 0 0.0 0.0 0.00 0.00 0.00 92 1015.4
20260509050003 54 0 0.0 0.0 0.00 0.00 0.00 91 1015.3
20260509044204 54 0 0.0 0.0 0.00 0.00 0.00 91 1015.1
20260509042403 55 0 0.0 0.0 0.00 0.00 0.00 90 1015.1
20260509041804 55 0 0.0 0.0 0.00 0.00 0.00 90 1015.0
20260509041204 55 0 0.0 0.0 0.00 0.00 0.00 90 1015.0
20260509040604 55 0 0.0 0.0 0.00 0.00 0.00 90 1014.9
20260509040004 55 0 0.0 0.0 0.00 0.00 0.00 90 1014.8
20260509034803 56 0 0.0 0.0 0.00 0.00 0.00 89 1014.8
20260509033603 56 0 0.0 0.0 0.00 0.00 0.00 88 1014.8
20260509032403 56 0 0.0 0.0 0.00 0.00 0.00 87 1014.8
20260509031803 57 0 0.0 0.0 0.00 0.00 0.00 87 1014.8
20260509031203 57 0 0.0 0.0 0.00 0.00 0.00 86 1014.8
20260509030603 58 0 0.0 0.0 0.00 0.00 0.00 86 1014.8
20260509030003 58 0 0.0 0.0 0.00 0.00 0.00 85 1014.7
20260509025403 58 0 0.0 0.0 0.00 0.00 0.00 84 1014.7
20260509024803 59 0 0.0 0.0 0.00 0.00 0.00 84 1014.8
20260509024203 59 0 0.0 0.0 0.00 0.00 0.00 84 1014.7
20260509023604 59 0 0.0 0.0 0.00 0.00 0.00 84 1014.7
20260509021804 60 0 0.0 0.0 0.00 0.00 0.00 83 1014.6
20260509021203 60 0 0.0 0.0 0.00 0.00 0.00 82 1014.6
20260509015404 62 0 0.0 0.0 0.00 0.00 0.00 80 1014.6